Regional Weather Roundup
Issued by NWS Grand Forks, ND

Home | Current Version | Previous Version | Text Only | Print | Product List | Glossary Off
Versions: 1 2 3 4 5 6 7 8 9 10 11 12 13 14 15 16 17 18 19 20 21 22 23 24 25 26 27 28 29 30 31 32 33 34 35 36 37 38 39 40 41 42 43 44 45 46 47 48 49 50

000
ASUS43 KFGF 191910
RWRFGF
PRAIRIE TO PINES  WEATHER ROUNDUP
NATIONAL WEATHER SERVICE EASTERN NORTH DAKOTA/GRAND FORKS ND
200 PM CDT SAT APR 19 2014

 **SATELLITE DATA USED TO AUGMENT SKY COVER AT AUTOMATED STATIONS**
 *****  WEATHER ACROSS EASTERN NORTH DAKOTA  *****

CITY           SKY/WX    TMP DP  RH WIND       PRES   REMARKS
GRAND FORKS    MOSUNNY   60  37  42 W24G30    29.84R
GRAND FRKS AFB MOSUNNY   62  35  37 NW22G31   29.84R
GRAND FRKS NWS   N/A     63 N/A N/A W14         N/A
DEVILS LAKE    PTSUNNY   54  37  54 W26G35    29.85R
FARGO          PTSUNNY   66  28  24 SW18      29.88S
WAHPETON ARPT  PTCLDY    66  25  20 W16       29.92S
$$

 ***** WEATHER ACROSS CENTRAL AND WESTERN NORTH DAKOTA  *****

CITY           SKY/WX    TMP DP  RH WIND       PRES   REMARKS
BISMARCK       SUNNY     65  29  25 W21G30    29.92S
MINOT          CLOUDY    48  35  60 W20       29.88R
JAMESTOWN      MOSUNNY   63  32  31 NW25G32   29.88R
MINOT AFB      CLOUDY    47  37  66 W20       29.87R
GARRISON         N/A     51  36  56 W23G32    29.91R
WILLISTON      PTSUNNY   52  34  50 W15       29.92R
DICKINSON      SUNNY     58  33  39 NW18G28   29.92R
HETTINGER      SUNNY     60  28  29 W26G36    29.97R
$$

 *****  OTHER AIRPORT OBSERVATIONS IN OUR AREA  *****

CITY           SKY/WX    TMP DP  RH WIND       PRES   REMARKS
WALHALLA         N/A     52  39  62 W18G31    29.78R
GRAFTON AIRPOR MOCLDY    54  37  54 W24G33    29.82R
VALLEY CITY AR FAIR      61  32  33 W23G31    29.89R
CANDO          CLOUDY    48  37  66 W25G32    29.83R
CAVALIER APRT  CLOUDY    54  37  54 W24G35    29.79R
GWINNER        CLEAR     63  32  31 W17G24    29.94R
ROLLA          MOCLDY    48  37  66 W21G31    29.80R
 ***** THE ABOVE OBSERVATIONS ARE NON NWS ARE NOT QUALITY
       CONTROLLED AND MAY MIS-REPORT RAIN FOR SNOW...
$$

  *****  WEATHER ACROSS NORTHERN MINNESOTA  *****

CITY           SKY/WX    TMP DP  RH WIND       PRES   REMARKS
FLAG ISLAND    MOSUNNY   37  34  87 SE13      29.74F
WARROAD        SUNNY     57  41  54 SW22G28   29.77S
ROSEAU         MOSUNNY   59  39  47 SW25G32   29.78S
HALLOCK        CLOUDY    55  39  54 W24G31    29.78S
THF RVR FALLS  PTSUNNY   59  37  44 SW23G29   29.83S
BAUDETTE       PTSUNNY   60  36  40 SW17G28   29.79S
WASKISH        MOSUNNY   55  37  50 SW15G21   29.84R
CROOKSTON      SUNNY     63  36  36 W24G31    29.85R
$$
  *****  WEATHER ACROSS CENTRAL AND WEST MINNESOTA  *****

CITY           SKY/WX    TMP DP  RH WIND       PRES   REMARKS
FOSSTON        MOSUNNY   61  34  36 SW22G29   29.86S
BEMIDJI        PTSUNNY   62  29  28 W18G24    29.85S
PARK RAPIDS    MOSUNNY   65  37  35 SW17G24   29.89S
ELBOW LAKE     FAIR      65  32  28 W14G21    29.94R
WADENA         MOSUNNY   61  39  44 W16G25    29.92R
DETROIT LAKES  MOSUNNY   61  32  33 W13G23    29.91R
MOORHEAD       NOT AVBL
FERGUS FALLS   MOSUNNY   66  23  19 W18       29.89S
MORRIS MN      PTSUNNY   63  34  34 W12       29.95R
STAPLES        PTSUNNY   61  45  55 S15       29.93S
$$
  *****  WEATHER ELSEWHERE ACROSS MINNESOTA  *****

CITY           SKY/WX    TMP DP  RH WIND       PRES   REMARKS
DULUTH         LGT RAIN  36  29  75 SE10      30.02F
INTRNTL FALLS  PTSUNNY   46  34  62 S10G23    29.86F
ELY            CLOUDY    37  30  75 S12G17    29.98F
CLOQUET        CLOUDY    43  30  61 E5        30.02S
WHEATON        MOSUNNY   70  34  26 W15       29.96R
BRAINERD       PTSUNNY   63  41  44 S20G31    29.95F
HIBBING        CLOUDY    47  33  58 S15G24    29.95F
ALEXANDRIA     PTSUNNY   60  44  55 W9        29.95S
SAINT CLOUD    LGT RAIN  52  41  66 SE6       29.98S
MINNEAPOLIS    PTSUNNY   61  41  47 S20G26    30.02F
$$

  *****  WEATHER ACROSS SOUTH DAKOTA  *****

CITY           SKY/WX    TMP DP  RH WIND       PRES   REMARKS
SIOUX FALLS    PTSUNNY   68  43  40 N13       29.98S
BROOKINGS      NOT AVBL
WATERTOWN      CLOUDY    58  29  33 W8        29.99R
HURON          PTSUNNY   65  24  21 NW8G16    30.00S
SISSETON         N/A     67  27  22 W14       29.93F
ABERDEEN       MOSUNNY   67  24  19 W16       29.96F
MITCHELL       CLOUDY    64  31  28 NW10      30.00F
PIERRE         MOSUNNY   64  23  21 VRB7      30.00F
MOBRIDGE       SUNNY     65  26  23 NW17G25   29.93F
RAPID CITY     MOSUNNY   59  18  20 VRB7      30.03F
$$

  *****  SOME WEATHER IN NEARBY STATES *****

CITY           SKY/WX    TMP DP  RH WIND       PRES   REMARKS
GLASGOW MT     MOSUNNY   53  36  52 W12       29.93F
GREAT FALLS MT SUNNY     57  15  19 S9G22     29.89F
CHEYENNE WY    CLOUDY    56  36  47 SE10      30.08S
SCOTTSBLUFF NE PTSUNNY   61  30  31 SE7G16    30.05F
OMAHA NE       CLOUDY    77  44  30 S16G28    30.00F
DES MOINES IA  CLOUDY    75  42  30 SW16G28   30.10F
DAVENPORT IA   SUNNY     71  33  24 S16G29    30.25S
CHICAGO IL     PTSUNNY   60  35  39 E12       30.31F
EAU CLAIRE WI  PTSUNNY   65  34  31 S20G30    30.09F
LA CROSSE WI   SUNNY     64  34  32 S18       30.15F
$$

  *****  SOME NATIONAL WEATHER *****

CITY           SKY/WX    TMP DP  RH WIND       PRES   REMARKS
LA GUARDIA NY  PTSUNNY   64  24  21 VRB6G16   30.23S
RALEIGH NC     CLOUDY    51  45  79 NE9G17    30.18R
ATLANTA GA     CLOUDY    61  54  77 NE17G29   30.09R
NEW ORLEANS LA MOSUNNY   74  53  48 N8        30.14F
OKLAHOMA CITY  PTSUNNY   77  47  34 S13G20    30.10F
ALBUQUERQUE NM CLOUDY    57  42  57 S13       30.13F
SALT LAKE CITY PTSUNNY   66  39  37 CALM      30.01F
LOS ANGELES CA PTSUNNY   65  54  67 W10       30.03R
BOISE ID       SUNNY     67  25  20 SE12      29.93F
SEATTLE WA     RAIN      46  41  82 S10       29.88S
$$

*** WEATHER ACROSS MANITOBA...SASKATCHEWAN AND ONTARIO ***
                ***ONTARIO***

CITY           SKY/WX    TMP DP  RH WIND       PRES   REMARKS
GERALDTON      LGT SNOW N/A N/A N/A S23         N/A
THUNDER BAY    FLURRIES  32  32 100 E14G20    30.18F WCI  22
SIOUX LOOKOUT  LGT RAIN  32  30  93 S15G26    29.91F FOG     WCI  22
TORONTO        MOSUNNY   50  32  50 SE6       30.43F
BIG TROUT LK   SUNNY     41  16  36 SE21G29   30.06F
PICKLE LAKE    LGT SNOW  30  27  86 SE26G33   30.01F DRFTSNOWWCI  16
DRYDEN         CLOUDY    34  34 100 S18G26    29.86F WCI  23
KENORA         PTSUNNY   43  36  75 S16G23    29.76F
$$
                *** MANITOBA***

CITY           SKY/WX    TMP DP  RH WIND       PRES   REMARKS
BRANDON        CLOUDY    41  36  81 W26G36    29.76R
DAUPHIN        CLOUDY    36  34  93 W15       29.69R
ISLAND LAKE    HVY SNOW N/A N/A N/A E12G24      N/A  VSB 1/4
PILOT MOUND      N/A     46  36  66 W17G28      N/A
THE PAS        LGT SNOW  32  30  93 NE8       29.72S WCI  25
THOMPSON       LGT SNOW  32  32 100 E14       29.83  VSB 1   WCI  22
WINNIPEG       PTSUNNY   52  39  62 W17G31    29.70R
LYNN LAKE      CLOUDY    36  10  35 E14       29.83F
CHURCHILL      MOSUNNY   32  21  64 E13       30.15F WCI  22
GILLAM         CLOUDY    41  16  36 NE12      29.95F
$$
                ***SASKATCHEWAN***

CITY           SKY/WX    TMP DP  RH WIND       PRES   REMARKS
ESTEVAN        PTSUNNY   43  37  81 W17G23    29.87
KINDERSLEY     CLOUDY    39  30  70 W9        29.85F
LLOYDMINSTER   MOSUNNY   43  32  65 NW7       29.81F
PRINCE ALBERT  CLOUDY    36  28  75 W10       29.81S
REGINA         CLOUDY    37  32  81 NW21G30   29.87R
YORKTON        CLOUDY    36  28  75 W22G29    29.76R
N. BATTLEFORD  CLOUDY    37  32  81 W7        29.85
LA RONGE       LGT SNOW  32  28  86 N3        29.81S
SASKATOON      CLOUDY    36  30  80 NW10      29.86S
SWIFT CURRENT  CLOUDY    36  32  87 W18       29.88S
$$
NOTE: THESE ARE AUTOMATED STATIONS WITH LIMITED QUALITY CONTROL
      "FAIR" INDICATES FEW OR NO CLOUDS BELOW 12,000 FEET WITH NO
      SIGNIFICANT WEATHER AND/OR OBSTRUCTIONS TO VISIBILITY.
      SKY/WX - SKY CONDITION AND SIGNIFICANT WEATHER.
      TMP - AIR TEMPERATURE.    DP   - DEWPOINT TEMPERATURE.
      RH  - RELATIVE HUMIDITY.  PRES - PRESSURE.
      HX  - HEAT INDEX.         WCI  - WIND CHILL INDEX.
$



USA.gov is the U.S. government's official web portal to all federal, state and local government web resources and services.